User: anonymous
Location: Delta State University
(33.7460°N, 90.7320°W)
Time: 22:28:48
(UTC-05:00)
Language:

Iridium 13 - Orbit

View from above orbital plane
View from above orbital plane
View from above satellite
View from above satellite

Ground track
Ground track

The orbit data is extracted from the following two-line orbital elements,

1 24840U 97030E   14259.37077193  .00000029  00000-0  31715-5 0  9279
2 24840 086.3952 050.2214 0002031 114.8001 279.7230 14.34215762902925
Epoch (UTC): 16 September 2014 08:53:54
Eccentricity: 0.0002031
inclination: 86.3952°
perigee height: 776 km
apogee height: 779 km
right ascension of ascending node: 50.2214°
argument of perigee: 114.8001°
revolutions per day: 14.34215762
mean anomaly at epoch: 279.7230°
orbit number at epoch: 90292

The dashed part of the orbit path shows where the satellite is in the earth's shadow,  

DLR